• Join FlightAware (Why Join?)
  • Login
  • US Flag 
02:25PM EDT


 

Airport Tracker/Info


-or-


 

Live Flight TrackerFlight Track Log ✈ FLG4262 ✈ 20-Nov-2013 ✈ KBGM - KDTW

Flight Track Log - Related Links

Times and Time Zones

All times are in EST time to prevent confusion due to time zone crossing. See the FLG4262 flight status page for this flight to view local times or setup timezone preferences in your user account.

Time Position Orientation Groundspeed Altitude Reporting Facility
EST Latitude Longitude Course Direction KTS MPH feet Rate Location/Type
05:32PM 42.2519 -76.0881 289° West 198 228 5,300  Level New York Center
05:33PM 42.2789 -76.1828 291° West 232 267 7,300 2,400 Climbing New York Center
05:34PM 42.3042 -76.2689 292° West 275 316 10,100 2,520 Climbing New York Center
05:35PM 42.3356 -76.3783 291° West 304 350 12,100 2,100 Climbing Cleveland Center
05:36PM 42.3686 -76.5019 290° West 332 382 14,200 2,100 Climbing Cleveland Center
05:37PM 42.4036 -76.6292 290° West 354 407 16,500 1,740 Climbing Cleveland Center
05:38PM 42.4381 -76.7564 290° West 358 412 17,900 1,560 Climbing Cleveland Center
05:39PM 42.4806 -76.9122 290° West 365 420 19,800 1,620 Climbing Cleveland Center
05:40PM 42.5158 -77.0450 290° West 370 426 21,300 1,260 Climbing Cleveland Center
05:41PM 42.5511 -77.1806 289° West 379 436 22,500 1,440 Climbing Cleveland Center
05:42PM 42.5867 -77.3136 290° West 378 435 24,300 1,320 Climbing Cleveland Center
05:43PM 42.6217 -77.4436 290° West 370 426 25,300 780 Climbing Cleveland Center
05:44PM 42.6578 -77.5825 290° West 380 437 26,000 300 Climbing Cleveland Center
05:45PM 42.6986 -77.7392 290° West 394 453 26,000  Level Cleveland Center
05:46PM 42.7369 -77.8856 290° West 413 475 26,000  Level Cleveland Center
05:47PM 42.7736 -78.0317 289° West 412 474 26,000  Level Cleveland Center
05:49PM 42.8189 -78.2119 289° West 420 483 26,000  Level Cleveland Center
05:50PM 42.8233 -78.3689 272° West 421 484 26,000  Level Cleveland Center
05:51PM 42.8158 -78.5283 266° West 424 488 26,000  Level Cleveland Center
05:52PM 42.8097 -78.6869 267° West 423 487 26,000  Level Cleveland Center
05:53PM 42.8017 -78.8472 266° West 423 487 26,000  Level Cleveland Center
05:54PM 42.7947 -79.0069 267° West 425 489 26,000  Level Cleveland Center
05:55PM 42.7847 -79.1981 266° West 424 488 26,000  Level Cleveland Center
05:56PM 42.7767 -79.3583 266° West 425 489 26,000  Level Cleveland Center
05:57PM 42.7689 -79.5156 266° West 418 481 26,000  Level Cleveland Center
05:58PM 42.7600 -79.6753 266° West 423 487 26,000  Level Cleveland Center
05:59PM 42.7472 -79.8347 264° West 425 489 26,000  Level Cleveland Center
06:00PM 42.7372 -80.0125 266° West 421 484 26,000  Level Cleveland Center
06:01PM 42.7364 -80.1731 270° West 422 486 26,000  Level Cleveland Center
06:02PM 42.7300 -80.3331 267° West 421 484 26,000  Level Cleveland Center
06:03PM 42.7228 -80.4906 266° West 416 479 26,000 -240 Level Cleveland Center
06:04PM 42.7169 -80.6503 267° West 419 482 25,600 -900 Descending Cleveland Center
06:05PM 42.7097 -80.8331 267° West 416 479 24,200 -1,260 Descending Cleveland Center
06:06PM 42.6969 -80.9728 263° West 380 437 23,100 -1,080 Descending Cleveland Center
06:07PM 42.6811 -81.1069 261° West 360 414 22,000 -1,080 Descending Cleveland Center
06:08PM 42.6650 -81.2450 261° West 365 420 20,900 -1,080 Descending Cleveland Center
06:09PM 42.6503 -81.3783 262° West 358 412 19,800 -1,080 Descending Cleveland Center
06:10PM 42.6342 -81.5069 260° West 347 399 18,700 -900 Descending Cleveland Center
06:11PM 42.6181 -81.6575 262° West 344 396 18,000 -900 Descending Cleveland Center
06:12PM 42.6017 -81.7836 260° West 341 392 16,900 -960 Descending Cleveland Center
06:13PM 42.5892 -81.8967 261° West 339 390 16,100 -960 Descending Cleveland Center
06:14PM 42.5733 -82.0197 260° West 335 386 15,000 -1,200 Descending Cleveland Center
06:15PM 42.5558 -82.1667 261° West 330 380 13,700 -1,200 Descending Cleveland Center
06:16PM 42.5444 -82.2597 261° West 344 396 13,000 -1,020 Descending Cleveland Center
06:16PM 42.5403 -82.2931 260° West 337 388 12,700 -780 Descending Cleveland Center
06:17PM 42.5242 -82.4175 260° West 338 389 12,000 -540 Descending Cleveland Center
06:18PM 42.5172 -82.4714 260° West 298 343 12,000  Level Cleveland Center
06:19PM 42.5117 -82.5267 262° West 307 353 12,000  Level Cleveland Center
06:19PM 42.4919 -82.5642 235° Southwest 291 335 12,000 -720 Level Cleveland Center
06:20PM 42.4644 -82.6122 232° Southwest 288 331 11,300 -1,320 Descending Cleveland Center
06:20PM 42.4442 -82.6458 231° Southwest 272 313 10,700 -1,680 Descending Cleveland Center
06:21PM 42.4078 -82.7094 232° Southwest 276 318 9,600 -1,380 Descending Cleveland Center
06:21PM 42.3986 -82.7275 235° Southwest 271 312 9,300 -1,260 Descending Cleveland Center
06:22PM 42.4000 -82.7986 272° West 266 306 8,300 -1,200 Descending Cleveland Center
06:22PM 42.4083 -82.8247 293° West 273 314 8,100 -300 Descending Cleveland Center
06:23PM 42.4325 -82.8906 296° West 271 312 8,000 -120 Descending Cleveland Center
06:23PM 42.4411 -82.9197 292° West 275 316 8,000  Level Cleveland Center
06:24PM 42.4761 -83.0147 297° West 280 322 8,000 -540 Level Cleveland Center
06:25PM 42.4983 -83.1083 288° West 228 262 7,000 -1,140 Descending Cleveland Center
06:26PM 42.4636 -83.1772 236° Southwest 201 231 5,800 -1,080 Descending Cleveland Center
06:27PM 42.4250 -83.2064 209° Southwest 202 232 5,000 -900 Descending Cleveland Center
06:27PM 42.4150 -83.2128 205° Southwest 199 229 4,900 -1,080 Descending Cleveland Center
06:28PM 42.3761 -83.2425 209° Southwest 199 229 3,900 -1,200 Descending Cleveland Center
06:28PM 42.3658 -83.2514 213° Southwest 200 230 3,700 -900 Descending Cleveland Center
06:29PM 42.3311 -83.2769 209° Southwest 193 222 3,000 -900 Descending Cleveland Center
06:29PM 42.3217 -83.2817 200° South 163 188 2,800 -900 Descending Cleveland Center
06:30PM 42.2922 -83.3061 212° Southwest 176 203 2,100 -840 Descending Cleveland Center
06:30PM 42.2814 -83.3128 204° Southwest 129 148 1,900 -780 Descending Cleveland Center
06:31PM 42.2608 -83.3283 209° Southwest 147 169 1,300 -840 Descending Cleveland Center
06:31PM 42.2503 -83.3367 210° Southwest 124 143 1,100 -420 Descending Cleveland Center
06:32PM 42.2256 -83.3539 207° Southwest 137 158 900 -240 Descending Cleveland Center
06:34PM 42.2124 -83.3534 208° Southwest  Level Estimated
06:41PM 42.2124 -83.3534 208° Southwest  Level Estimated